User: anonymous   Login
Location: Unspecified
(0.0000°N, 0.0000°E)
Time: 11:56:00
(UTC+00:00)
Language:

Dynamics Explorer 1 - Orbit

View from above orbital plane
View from above orbital plane
View from above satellite
View from above satellite

Ground track
Ground track

The orbit data is extracted from the following two-line orbital elements,

1 12624U 81070A   18292.79011680 -.00000068 +00000-0 -23538-3 0  9995
2 12624 090.1757 034.1435 6212044 060.4033 347.1121 03.52494584626536
Epoch (UTC): 19 October 2018 18:57:46
Eccentricity: 0.6212044
inclination: 90.1757°
perigee height: 530 km
apogee height: 23188 km
right ascension of ascending node: 34.1435°
argument of perigee: 60.4033°
revolutions per day: 3.52494584
mean anomaly at epoch: 347.1121°
orbit number at epoch: 62653

The dashed part of the orbit path shows where the satellite is in the earth's shadow,  

DLR